Year,Month,Day,Hour,Minute,Value (Times are PST for temperature in C)
2017,06,25,00,00,25.10
2017,06,25,00,01,25.10
2017,06,25,00,02,25.10
2017,06,25,00,03,25.10
2017,06,25,00,04,25.10
2017,06,25,00,05,25.10
2017,06,25,00,06,25.10
2017,06,25,00,07,25.10
2017,06,25,00,08,25.10
2017,06,25,00,09,25.10
2017,06,25,00,10,25.10
2017,06,25,00,11,25.10
2017,06,25,00,12,25.10
2017,06,25,00,13,25.10
2017,06,25,00,14,25.10
2017,06,25,00,15,25.10
2017,06,25,00,16,25.10
2017,06,25,00,17,25.20
2017,06,25,00,18,25.20
2017,06,25,00,19,25.20
2017,06,25,00,20,25.20
2017,06,25,00,21,25.20
2017,06,25,00,22,25.20
2017,06,25,00,23,25.20
2017,06,25,00,24,25.20
2017,06,25,00,25,25.30
2017,06,25,00,26,25.30
2017,06,25,00,27,25.30
2017,06,25,00,28,25.30
2017,06,25,00,29,25.30
2017,06,25,00,30,25.30
2017,06,25,00,31,25.30
2017,06,25,00,32,25.30
2017,06,25,00,33,25.30
2017,06,25,00,34,25.30
2017,06,25,00,35,25.30
2017,06,25,00,36,25.30
2017,06,25,00,37,25.30
2017,06,25,00,38,25.30
2017,06,25,00,39,25.30
2017,06,25,00,40,25.30
2017,06,25,00,41,25.20
2017,06,25,00,42,25.20
2017,06,25,00,43,25.20
2017,06,25,00,44,25.20
2017,06,25,00,45,25.20
2017,06,25,00,46,25.20
2017,06,25,00,47,25.20
2017,06,25,00,48,25.20
2017,06,25,00,49,25.20
2017,06,25,00,50,25.20
2017,06,25,00,51,25.10
2017,06,25,00,52,25.10
2017,06,25,00,53,25.10
2017,06,25,00,54,25.10
2017,06,25,00,55,25.10
2017,06,25,00,56,25.10
2017,06,25,00,57,25.10
2017,06,25,00,58,25.00
2017,06,25,00,59,25.00
2017,06,25,01,00,25.00
2017,06,25,01,01,25.00
2017,06,25,01,02,25.00
2017,06,25,01,03,25.00
2017,06,25,01,04,24.90
2017,06,25,01,05,24.90
2017,06,25,01,06,24.90
2017,06,25,01,07,24.90
2017,06,25,01,08,24.80
2017,06,25,01,09,24.80
2017,06,25,01,10,24.80
2017,06,25,01,11,24.70
2017,06,25,01,12,24.70
2017,06,25,01,13,24.70
2017,06,25,01,14,24.70
2017,06,25,01,15,24.70
2017,06,25,01,16,24.70
2017,06,25,01,17,24.70
2017,06,25,01,18,24.60
2017,06,25,01,19,24.60
2017,06,25,01,20,24.60
2017,06,25,01,21,24.60
2017,06,25,01,22,24.60
2017,06,25,01,23,24.50
2017,06,25,01,24,24.50
2017,06,25,01,25,24.50
2017,06,25,01,26,24.40
2017,06,25,01,27,24.40
2017,06,25,01,28,24.40
2017,06,25,01,29,24.40
2017,06,25,01,30,24.30
2017,06,25,01,31,24.30
2017,06,25,01,32,24.30
2017,06,25,01,33,24.30
2017,06,25,01,34,24.20
2017,06,25,01,35,24.20
2017,06,25,01,36,24.10
2017,06,25,01,37,24.10
2017,06,25,01,38,24.00
2017,06,25,01,39,23.90
2017,06,25,01,40,23.90
2017,06,25,01,41,23.80
2017,06,25,01,42,23.80
2017,06,25,01,43,23.70
2017,06,25,01,44,23.70
2017,06,25,01,45,23.60
2017,06,25,01,46,23.50
2017,06,25,01,47,23.50
2017,06,25,01,48,23.40
2017,06,25,01,49,23.30
2017,06,25,01,50,23.30
2017,06,25,01,51,23.30
2017,06,25,01,52,23.20
2017,06,25,01,53,23.20
2017,06,25,01,54,23.20
2017,06,25,01,55,23.10
2017,06,25,01,56,23.00
2017,06,25,01,57,22.90
2017,06,25,01,58,22.90
2017,06,25,01,59,22.80
2017,06,25,02,00,22.80
2017,06,25,02,01,22.70
2017,06,25,02,02,22.70
2017,06,25,02,03,22.60
2017,06,25,02,04,22.60
2017,06,25,02,05,22.60
2017,06,25,02,06,22.50
2017,06,25,02,07,22.40
2017,06,25,02,08,22.40
2017,06,25,02,09,22.40
2017,06,25,02,10,22.40
2017,06,25,02,11,22.40
2017,06,25,02,12,22.40
2017,06,25,02,13,22.40
2017,06,25,02,14,22.40
2017,06,25,02,15,22.40
2017,06,25,02,16,22.40
2017,06,25,02,17,22.40
2017,06,25,02,18,22.30
2017,06,25,02,19,22.30
2017,06,25,02,20,22.30
2017,06,25,02,21,22.30
2017,06,25,02,22,22.30
2017,06,25,02,23,22.30
2017,06,25,02,24,22.20
2017,06,25,02,25,22.20
2017,06,25,02,26,22.20
2017,06,25,02,27,22.20
2017,06,25,02,28,22.20
2017,06,25,02,29,22.20
2017,06,25,02,30,22.20
2017,06,25,02,31,22.20
2017,06,25,02,32,22.20
2017,06,25,02,33,22.20
2017,06,25,02,34,22.30
2017,06,25,02,35,22.30
2017,06,25,02,36,22.30
2017,06,25,02,37,22.40
2017,06,25,02,38,22.40
2017,06,25,02,39,22.50
2017,06,25,02,40,22.50
2017,06,25,02,41,22.60
2017,06,25,02,42,22.60
2017,06,25,02,43,22.60
2017,06,25,02,44,22.60
2017,06,25,02,45,22.60
2017,06,25,02,46,22.60
2017,06,25,02,47,22.60
2017,06,25,02,48,22.60
2017,06,25,02,49,22.60
2017,06,25,02,50,22.60
2017,06,25,02,51,22.60
2017,06,25,02,52,22.60
2017,06,25,02,53,22.60
2017,06,25,02,54,22.60
2017,06,25,02,55,22.50
2017,06,25,02,56,22.50
2017,06,25,02,57,22.50
2017,06,25,02,58,22.40
2017,06,25,02,59,22.40
2017,06,25,03,00,22.40
2017,06,25,03,01,22.40
2017,06,25,03,02,22.40
2017,06,25,03,03,22.30
2017,06,25,03,04,22.30
2017,06,25,03,05,22.30
2017,06,25,03,06,22.30
2017,06,25,03,07,22.30
2017,06,25,03,08,22.30
2017,06,25,03,09,22.20
2017,06,25,03,10,22.20
2017,06,25,03,11,22.20
2017,06,25,03,12,22.20
2017,06,25,03,13,22.20
2017,06,25,03,14,22.20
2017,06,25,03,15,22.20
2017,06,25,03,16,22.10
2017,06,25,03,17,22.10
2017,06,25,03,18,22.10
2017,06,25,03,19,22.10
2017,06,25,03,20,22.10
2017,06,25,03,21,22.10
2017,06,25,03,22,22.10
2017,06,25,03,23,22.10
2017,06,25,03,24,22.00
2017,06,25,03,25,22.00
2017,06,25,03,26,22.00
2017,06,25,03,27,22.00
2017,06,25,03,28,22.00
2017,06,25,03,29,22.00
2017,06,25,03,30,22.00
2017,06,25,03,31,22.00
2017,06,25,03,32,22.00
2017,06,25,03,33,21.90
2017,06,25,03,34,21.90
2017,06,25,03,35,21.90
2017,06,25,03,36,21.90
2017,06,25,03,37,21.90
2017,06,25,03,38,21.90
2017,06,25,03,39,21.90
2017,06,25,03,40,21.90
2017,06,25,03,41,21.80
2017,06,25,03,42,21.80
2017,06,25,03,43,21.80
2017,06,25,03,44,21.80
2017,06,25,03,45,21.80
2017,06,25,03,46,21.70
2017,06,25,03,47,21.70
2017,06,25,03,48,21.70
2017,06,25,03,49,21.70
2017,06,25,03,50,21.70
2017,06,25,03,51,21.70
2017,06,25,03,52,21.70
2017,06,25,03,53,21.70
2017,06,25,03,54,21.70
2017,06,25,03,55,21.70
2017,06,25,03,56,21.70
2017,06,25,03,57,21.70
2017,06,25,03,58,21.70
2017,06,25,03,59,21.70
2017,06,25,04,00,21.80
2017,06,25,04,01,21.80
2017,06,25,04,02,21.80
2017,06,25,04,03,21.90
2017,06,25,04,04,21.90
2017,06,25,04,05,21.90
2017,06,25,04,06,21.90
2017,06,25,04,07,21.90
2017,06,25,04,08,22.00
2017,06,25,04,09,22.00
2017,06,25,04,10,22.00
2017,06,25,04,11,22.00
2017,06,25,04,12,22.00
2017,06,25,04,13,21.90
2017,06,25,04,14,21.90
2017,06,25,04,15,21.90
2017,06,25,04,16,21.90
2017,06,25,04,17,21.90
2017,06,25,04,18,21.90
2017,06,25,04,19,22.00
2017,06,25,04,20,22.00
2017,06,25,04,21,22.00
2017,06,25,04,22,22.10
2017,06,25,04,23,22.10
2017,06,25,04,24,22.10
2017,06,25,04,25,22.20
2017,06,25,04,26,22.20
2017,06,25,04,27,22.30
2017,06,25,04,28,22.30
2017,06,25,04,29,22.30
2017,06,25,04,30,22.30
2017,06,25,04,31,22.30
2017,06,25,04,32,22.30
2017,06,25,04,33,22.20
2017,06,25,04,34,22.20
2017,06,25,04,35,22.20
2017,06,25,04,36,22.20
2017,06,25,04,37,22.20
2017,06,25,04,38,22.10
2017,06,25,04,39,22.10
2017,06,25,04,40,22.10
2017,06,25,04,41,22.00
2017,06,25,04,42,22.00
2017,06,25,04,43,21.90
2017,06,25,04,44,21.90
2017,06,25,04,45,21.90
2017,06,25,04,46,21.90
2017,06,25,04,47,21.90
2017,06,25,04,48,21.90
2017,06,25,04,49,21.90
2017,06,25,04,50,21.90
2017,06,25,04,51,21.90
2017,06,25,04,52,21.90
2017,06,25,04,53,21.90
2017,06,25,04,54,21.90
2017,06,25,04,55,21.80
2017,06,25,04,56,21.80
2017,06,25,04,57,21.80
2017,06,25,04,58,21.80
2017,06,25,04,59,21.80
2017,06,25,05,00,21.80
2017,06,25,05,01,21.80
2017,06,25,05,02,21.80
2017,06,25,05,03,21.70
2017,06,25,05,04,21.70
2017,06,25,05,05,21.70
2017,06,25,05,06,21.70
2017,06,25,05,07,21.70
2017,06,25,05,08,21.70
2017,06,25,05,09,21.80
2017,06,25,05,10,21.80
2017,06,25,05,11,21.80
2017,06,25,05,12,21.70
2017,06,25,05,13,21.70
2017,06,25,05,14,21.70
2017,06,25,05,15,21.70
2017,06,25,05,16,21.70
2017,06,25,05,17,21.70
2017,06,25,05,18,21.70
2017,06,25,05,19,21.70
2017,06,25,05,20,21.60
2017,06,25,05,21,21.60
2017,06,25,05,22,21.70
2017,06,25,05,23,21.60
2017,06,25,05,24,21.60
2017,06,25,05,25,21.60
2017,06,25,05,26,21.60
2017,06,25,05,27,21.60
2017,06,25,05,28,21.60
2017,06,25,05,29,21.60
2017,06,25,05,30,21.60
2017,06,25,05,31,21.50
2017,06,25,05,32,21.50
2017,06,25,05,33,21.40
2017,06,25,05,34,21.40
2017,06,25,05,35,21.40
2017,06,25,05,36,21.40
2017,06,25,05,37,21.30
2017,06,25,05,38,21.30
2017,06,25,05,39,21.30
2017,06,25,05,40,21.20
2017,06,25,05,41,21.20
2017,06,25,05,42,21.10
2017,06,25,05,43,21.10
2017,06,25,05,44,21.10
2017,06,25,05,45,21.00
2017,06,25,05,46,20.90
2017,06,25,05,47,20.90
2017,06,25,05,48,20.80
2017,06,25,05,49,20.80
2017,06,25,05,50,20.80
2017,06,25,05,51,20.70
2017,06,25,05,52,20.70
2017,06,25,05,53,20.70
2017,06,25,05,54,20.70
2017,06,25,05,55,20.60
2017,06,25,05,56,20.60
2017,06,25,05,57,20.60
2017,06,25,05,58,20.60
2017,06,25,05,59,20.60
2017,06,25,06,00,20.60
2017,06,25,06,01,20.60
2017,06,25,06,02,20.60
2017,06,25,06,03,20.60
2017,06,25,06,04,20.60
2017,06,25,06,05,20.60
2017,06,25,06,06,20.60
2017,06,25,06,07,20.60
2017,06,25,06,08,20.60
2017,06,25,06,09,20.60
2017,06,25,06,10,20.60
2017,06,25,06,11,20.70
2017,06,25,06,12,20.70
2017,06,25,06,13,20.80
2017,06,25,06,14,20.80
2017,06,25,06,15,20.80
2017,06,25,06,16,20.90
2017,06,25,06,17,20.90
2017,06,25,06,18,20.90
2017,06,25,06,19,21.00
2017,06,25,06,20,21.00
2017,06,25,06,21,21.00
2017,06,25,06,22,21.00
2017,06,25,06,23,21.10
2017,06,25,06,24,21.10
2017,06,25,06,25,21.10
2017,06,25,06,26,21.10
2017,06,25,06,27,21.10
2017,06,25,06,28,21.10
2017,06,25,06,29,21.10
2017,06,25,06,30,21.10
2017,06,25,06,31,21.10
2017,06,25,06,32,21.10
2017,06,25,06,33,21.10
2017,06,25,06,34,21.00
2017,06,25,06,35,21.00
2017,06,25,06,36,21.00
2017,06,25,06,37,21.00
2017,06,25,06,38,20.90
2017,06,25,06,39,20.90
2017,06,25,06,40,20.90
2017,06,25,06,41,20.90
2017,06,25,06,42,20.90
2017,06,25,06,43,20.90
2017,06,25,06,44,20.90
2017,06,25,06,45,20.90
2017,06,25,06,46,20.90
2017,06,25,06,47,20.90
2017,06,25,06,48,20.90
2017,06,25,06,49,20.90
2017,06,25,06,50,20.90
2017,06,25,06,51,20.90
2017,06,25,06,52,21.00
2017,06,25,06,53,21.00
2017,06,25,06,54,21.00
2017,06,25,06,55,20.90
2017,06,25,06,56,20.90
2017,06,25,06,57,20.90
2017,06,25,06,58,20.90
2017,06,25,06,59,20.90
2017,06,25,07,00,20.90
2017,06,25,07,01,20.90
2017,06,25,07,02,20.90
2017,06,25,07,03,20.90
2017,06,25,07,04,20.80
2017,06,25,07,05,20.80
2017,06,25,07,06,20.80
2017,06,25,07,07,20.80
2017,06,25,07,08,20.80
2017,06,25,07,09,20.80
2017,06,25,07,10,20.80
2017,06,25,07,11,20.70
2017,06,25,07,12,20.70
2017,06,25,07,13,20.80
2017,06,25,07,14,20.80
2017,06,25,07,15,20.80
2017,06,25,07,16,20.80
2017,06,25,07,17,20.80
2017,06,25,07,18,20.90
2017,06,25,07,19,20.90
2017,06,25,07,20,20.90
2017,06,25,07,21,20.90
2017,06,25,07,22,21.00
2017,06,25,07,23,21.00
2017,06,25,07,24,21.00
2017,06,25,07,25,21.10
2017,06,25,07,26,21.10
2017,06,25,07,27,21.10
2017,06,25,07,28,21.20
2017,06,25,07,29,21.20
2017,06,25,07,30,21.30
2017,06,25,07,31,21.40
2017,06,25,07,32,21.40
2017,06,25,07,33,21.50
2017,06,25,07,34,21.50
2017,06,25,07,35,21.60
2017,06,25,07,36,21.60
2017,06,25,07,37,21.60
2017,06,25,07,38,21.60
2017,06,25,07,39,21.60
2017,06,25,07,40,21.60
2017,06,25,07,41,21.50
2017,06,25,07,42,21.50
2017,06,25,07,43,21.50
2017,06,25,07,44,21.40
2017,06,25,07,45,21.40
2017,06,25,07,46,21.40
2017,06,25,07,47,21.30
2017,06,25,07,48,21.30
2017,06,25,07,49,21.20
2017,06,25,07,50,21.20
2017,06,25,07,51,21.20
2017,06,25,07,52,21.20
2017,06,25,07,53,21.20
2017,06,25,07,54,21.20
2017,06,25,07,55,21.20
2017,06,25,07,56,21.20
2017,06,25,07,57,21.20
2017,06,25,07,58,21.20
2017,06,25,07,59,21.30
2017,06,25,08,00,21.30
2017,06,25,08,01,21.30
2017,06,25,08,02,21.30
2017,06,25,08,03,21.30
2017,06,25,08,04,21.40
2017,06,25,08,05,21.40
2017,06,25,08,06,21.40
2017,06,25,08,07,21.40
2017,06,25,08,08,21.40
2017,06,25,08,09,21.50
2017,06,25,08,10,21.50
2017,06,25,08,11,21.50
2017,06,25,08,12,21.60
2017,06,25,08,13,21.60
2017,06,25,08,14,21.70
2017,06,25,08,15,21.80
2017,06,25,08,16,21.80
2017,06,25,08,17,21.80
2017,06,25,08,18,21.90
2017,06,25,08,19,22.00
2017,06,25,08,20,22.00
2017,06,25,08,21,22.10
2017,06,25,08,22,22.10
2017,06,25,08,23,22.20
2017,06,25,08,24,22.20
2017,06,25,08,25,22.20
2017,06,25,08,26,22.20
2017,06,25,08,27,22.20
2017,06,25,08,28,22.20
2017,06,25,08,29,22.20
2017,06,25,08,30,22.30
2017,06,25,08,31,22.30
2017,06,25,08,32,22.30
2017,06,25,08,33,22.30
2017,06,25,08,34,22.30
2017,06,25,08,35,22.30
2017,06,25,08,36,22.30
2017,06,25,08,37,22.40
2017,06,25,08,38,22.40
2017,06,25,08,39,22.40
2017,06,25,08,40,22.50
2017,06,25,08,41,22.50
2017,06,25,08,42,22.60
2017,06,25,08,43,22.60
2017,06,25,08,44,22.70
2017,06,25,08,45,22.70
2017,06,25,08,46,22.70
2017,06,25,08,47,22.80
2017,06,25,08,48,22.80
2017,06,25,08,49,22.90
2017,06,25,08,50,23.00
2017,06,25,08,51,23.00
2017,06,25,08,52,23.10
2017,06,25,08,53,23.10
2017,06,25,08,54,23.20
2017,06,25,08,55,23.20
2017,06,25,08,56,23.30
2017,06,25,08,57,23.30
2017,06,25,08,58,23.40
2017,06,25,08,59,23.50
2017,06,25,09,00,23.60
2017,06,25,09,01,23.60
2017,06,25,09,02,23.70
2017,06,25,09,03,23.70
2017,06,25,09,04,23.80
2017,06,25,09,05,23.80
2017,06,25,09,06,23.90
2017,06,25,09,07,23.90
2017,06,25,09,08,24.00
2017,06,25,09,09,24.00
2017,06,25,09,10,24.10
2017,06,25,09,11,24.10
2017,06,25,09,12,24.20
2017,06,25,09,13,24.20
2017,06,25,09,14,24.20
2017,06,25,09,15,24.30
2017,06,25,09,16,24.30
2017,06,25,09,17,24.40
2017,06,25,09,18,24.40
2017,06,25,09,19,24.50
2017,06,25,09,20,24.50
2017,06,25,09,21,24.60
2017,06,25,09,22,24.60
2017,06,25,09,23,24.70
2017,06,25,09,24,24.70
2017,06,25,09,25,24.70
2017,06,25,09,26,24.70
2017,06,25,09,27,24.70
2017,06,25,09,28,24.80
2017,06,25,09,29,24.80
2017,06,25,09,30,24.80
2017,06,25,09,31,24.80
2017,06,25,09,32,24.80
2017,06,25,09,33,24.70
2017,06,25,09,34,24.70
2017,06,25,09,35,24.70
2017,06,25,09,36,24.70
2017,06,25,09,37,24.60
2017,06,25,09,38,24.60
2017,06,25,09,39,24.60
2017,06,25,09,40,24.60
2017,06,25,09,41,24.60
2017,06,25,09,42,24.60
2017,06,25,09,43,24.60
2017,06,25,09,44,24.60
2017,06,25,09,45,24.60
2017,06,25,09,46,24.60
2017,06,25,09,47,24.60
2017,06,25,09,48,24.60
2017,06,25,09,49,24.70
2017,06,25,09,50,24.70
2017,06,25,09,51,24.70
2017,06,25,09,52,24.80
2017,06,25,09,53,24.80
2017,06,25,09,54,24.90
2017,06,25,09,55,24.90
2017,06,25,09,56,25.00
2017,06,25,09,57,25.00
2017,06,25,09,58,25.00
2017,06,25,09,59,25.00
2017,06,25,10,00,25.00
2017,06,25,10,01,25.00
2017,06,25,10,02,25.00
2017,06,25,10,03,25.00
2017,06,25,10,04,25.10
2017,06,25,10,05,25.10
2017,06,25,10,06,25.20
2017,06,25,10,07,25.20
2017,06,25,10,08,25.20
2017,06,25,10,09,25.30
2017,06,25,10,10,25.30
2017,06,25,10,11,25.30
2017,06,25,10,12,25.30
2017,06,25,10,13,25.30
2017,06,25,10,14,25.30
2017,06,25,10,15,25.30
2017,06,25,10,16,25.30
2017,06,25,10,17,25.30
2017,06,25,10,18,25.40
2017,06,25,10,19,25.40
2017,06,25,10,20,25.40
2017,06,25,10,21,25.40
2017,06,25,10,22,25.50
2017,06,25,10,23,25.50
2017,06,25,10,24,25.60
2017,06,25,10,25,25.60
2017,06,25,10,26,25.60
2017,06,25,10,27,25.70
2017,06,25,10,28,25.70
2017,06,25,10,29,25.70
2017,06,25,10,30,25.80
2017,06,25,10,31,25.80
2017,06,25,10,32,25.90
2017,06,25,10,33,26.00
2017,06,25,10,34,26.00
2017,06,25,10,35,26.00
2017,06,25,10,36,26.10
2017,06,25,10,37,26.10
2017,06,25,10,38,26.20
2017,06,25,10,39,26.20
2017,06,25,10,40,26.20
2017,06,25,10,41,26.30
2017,06,25,10,42,26.30
2017,06,25,10,43,26.30
2017,06,25,10,44,26.30
2017,06,25,10,45,26.30
2017,06,25,10,46,26.40
2017,06,25,10,47,26.30
2017,06,25,10,48,26.40
2017,06,25,10,49,26.40
2017,06,25,10,50,26.40
2017,06,25,10,51,26.40
2017,06,25,10,52,26.50
2017,06,25,10,53,26.50
2017,06,25,10,54,26.60
2017,06,25,10,55,26.60
2017,06,25,10,56,26.60
2017,06,25,10,57,26.60
2017,06,25,10,58,26.50
2017,06,25,10,59,26.60
2017,06,25,11,00,26.50
2017,06,25,11,01,26.50
2017,06,25,11,02,26.50
2017,06,25,11,03,26.50
2017,06,25,11,04,26.50
2017,06,25,11,05,26.50
2017,06,25,11,06,26.50
2017,06,25,11,07,26.50
2017,06,25,11,08,26.50
2017,06,25,11,09,26.60
2017,06,25,11,10,26.60
2017,06,25,11,11,26.60
2017,06,25,11,12,26.60
2017,06,25,11,13,26.60
2017,06,25,11,14,26.50
2017,06,25,11,15,26.50
2017,06,25,11,16,26.40
2017,06,25,11,17,26.20
2017,06,25,11,18,26.10
2017,06,25,11,19,26.00
2017,06,25,11,20,25.90
2017,06,25,11,21,25.80
2017,06,25,11,22,25.70
2017,06,25,11,23,25.60
2017,06,25,11,24,25.50
2017,06,25,11,25,25.40
2017,06,25,11,26,25.30
2017,06,25,11,27,25.20
2017,06,25,11,28,25.10
2017,06,25,11,29,25.10
2017,06,25,11,30,25.10
2017,06,25,11,31,25.10
2017,06,25,11,32,25.10
2017,06,25,11,33,25.10
2017,06,25,11,34,25.20
2017,06,25,11,35,25.30
2017,06,25,11,36,25.40
2017,06,25,11,37,25.50
2017,06,25,11,38,25.60
2017,06,25,11,39,25.70
2017,06,25,11,40,25.70
2017,06,25,11,41,25.80
2017,06,25,11,42,25.80
2017,06,25,11,43,25.90
2017,06,25,11,44,25.90
2017,06,25,11,45,26.00
2017,06,25,11,46,26.10
2017,06,25,11,47,26.10
2017,06,25,11,48,26.20
2017,06,25,11,49,26.30
2017,06,25,11,50,26.40
2017,06,25,11,51,26.40
2017,06,25,11,52,26.40
2017,06,25,11,53,26.50
2017,06,25,11,54,26.50
2017,06,25,11,55,26.60
2017,06,25,11,56,26.60
2017,06,25,11,57,26.60
2017,06,25,11,58,26.60
2017,06,25,11,59,26.60
2017,06,25,12,00,26.60
2017,06,25,12,01,26.60
2017,06,25,12,02,26.60
2017,06,25,12,03,26.60
2017,06,25,12,04,26.50
2017,06,25,12,05,26.50
2017,06,25,12,06,26.40
2017,06,25,12,07,26.40
2017,06,25,12,08,26.40
2017,06,25,12,09,26.40
2017,06,25,12,10,26.40
2017,06,25,12,11,26.40
2017,06,25,12,12,26.50
2017,06,25,12,13,26.50
2017,06,25,12,14,26.60
2017,06,25,12,15,26.70
2017,06,25,12,16,26.70
2017,06,25,12,17,26.80
2017,06,25,12,18,26.80
2017,06,25,12,19,26.70
2017,06,25,12,20,26.70
2017,06,25,12,21,26.60
2017,06,25,12,22,26.60
2017,06,25,12,23,26.50
2017,06,25,12,24,26.40
2017,06,25,12,25,26.30
2017,06,25,12,26,26.30
2017,06,25,12,27,26.20
2017,06,25,12,28,26.20
2017,06,25,12,29,26.20
2017,06,25,12,30,26.20
2017,06,25,12,31,26.20
2017,06,25,12,32,26.20
2017,06,25,12,33,26.20
2017,06,25,12,34,26.20
2017,06,25,12,35,26.20
2017,06,25,12,36,26.20
2017,06,25,12,37,26.20
2017,06,25,12,38,26.20
2017,06,25,12,39,26.10
2017,06,25,12,40,26.10
2017,06,25,12,41,26.10
2017,06,25,12,42,26.10
2017,06,25,12,43,26.00
2017,06,25,12,44,26.00
2017,06,25,12,45,26.00
2017,06,25,12,46,25.90
2017,06,25,12,47,25.90
2017,06,25,12,48,25.80
2017,06,25,12,49,25.80
2017,06,25,12,50,25.80
2017,06,25,12,51,25.80
2017,06,25,12,52,25.70
2017,06,25,12,53,25.70
2017,06,25,12,54,25.70
2017,06,25,12,55,25.70
2017,06,25,12,56,25.70
2017,06,25,12,57,25.70
2017,06,25,12,58,25.70
2017,06,25,12,59,25.70
2017,06,25,13,00,25.70
2017,06,25,13,01,25.70
2017,06,25,13,02,25.70
2017,06,25,13,03,25.80
2017,06,25,13,04,25.80
2017,06,25,13,05,25.90
2017,06,25,13,06,25.90
2017,06,25,13,07,26.00
2017,06,25,13,08,26.10
2017,06,25,13,09,26.20
2017,06,25,13,10,26.30
2017,06,25,13,11,26.50
2017,06,25,13,12,26.60
2017,06,25,13,13,26.80
2017,06,25,13,14,27.00
2017,06,25,13,15,27.10
2017,06,25,13,16,27.30
2017,06,25,13,17,27.40
2017,06,25,13,18,27.60
2017,06,25,13,19,27.70
2017,06,25,13,20,27.80
2017,06,25,13,21,27.90
2017,06,25,13,22,27.90
2017,06,25,13,23,28.00
2017,06,25,13,24,28.10
2017,06,25,13,25,28.10
2017,06,25,13,26,28.10
2017,06,25,13,27,28.20
2017,06,25,13,28,28.20
2017,06,25,13,29,28.20
2017,06,25,13,30,28.30
2017,06,25,13,31,28.30
2017,06,25,13,32,28.30
2017,06,25,13,33,28.40
2017,06,25,13,34,28.50
2017,06,25,13,35,28.50
2017,06,25,13,36,28.60
2017,06,25,13,37,28.60
2017,06,25,13,38,28.60
2017,06,25,13,39,28.60
2017,06,25,13,40,28.70
2017,06,25,13,41,28.70
2017,06,25,13,42,28.70
2017,06,25,13,43,28.70
2017,06,25,13,44,28.80
2017,06,25,13,45,28.80
2017,06,25,13,46,28.90
2017,06,25,13,47,29.00
2017,06,25,13,48,29.10
2017,06,25,13,49,29.10
2017,06,25,13,50,29.10
2017,06,25,13,51,29.10
2017,06,25,13,52,29.10
2017,06,25,13,53,29.10
2017,06,25,13,54,29.10
2017,06,25,13,55,29.00
2017,06,25,13,56,29.00
2017,06,25,13,57,29.00
2017,06,25,13,58,28.90
2017,06,25,13,59,28.90
2017,06,25,14,00,28.90
2017,06,25,14,01,28.90
2017,06,25,14,02,28.90
2017,06,25,14,03,28.90
2017,06,25,14,04,29.00
2017,06,25,14,05,29.00
2017,06,25,14,06,29.10
2017,06,25,14,07,29.10
2017,06,25,14,08,29.10
2017,06,25,14,09,29.00
2017,06,25,14,10,28.90
2017,06,25,14,11,28.90
2017,06,25,14,12,28.80
2017,06,25,14,13,28.70
2017,06,25,14,14,28.70
2017,06,25,14,15,28.60
2017,06,25,14,16,28.60
2017,06,25,14,17,28.60
2017,06,25,14,18,28.50
2017,06,25,14,19,28.40
2017,06,25,14,20,28.40
2017,06,25,14,21,28.30
2017,06,25,14,22,28.30
2017,06,25,14,23,28.20
2017,06,25,14,24,28.10
2017,06,25,14,25,28.00
2017,06,25,14,26,28.00
2017,06,25,14,27,27.90
2017,06,25,14,28,27.90
2017,06,25,14,29,27.80
2017,06,25,14,30,27.80
2017,06,25,14,31,27.70
2017,06,25,14,32,27.70
2017,06,25,14,33,27.60
2017,06,25,14,34,27.60
2017,06,25,14,35,27.60
2017,06,25,14,36,27.60
2017,06,25,14,37,27.50
2017,06,25,14,38,27.60
2017,06,25,14,39,27.60
2017,06,25,14,40,27.60
2017,06,25,14,41,27.70
2017,06,25,14,42,27.70
2017,06,25,14,43,27.70
2017,06,25,14,44,27.80
2017,06,25,14,45,27.80
2017,06,25,14,46,27.80
2017,06,25,14,47,27.80
2017,06,25,14,48,27.80
2017,06,25,14,49,27.80
2017,06,25,14,50,27.80
2017,06,25,14,51,27.70
2017,06,25,14,52,27.70
2017,06,25,14,53,27.70
2017,06,25,14,54,27.60
2017,06,25,14,55,27.60
2017,06,25,14,56,27.60
2017,06,25,14,57,27.60
2017,06,25,14,58,27.60
2017,06,25,14,59,27.60
2017,06,25,15,00,27.60
2017,06,25,15,01,27.70
2017,06,25,15,02,27.70
2017,06,25,15,03,27.70
2017,06,25,15,04,27.80
2017,06,25,15,05,27.80
2017,06,25,15,06,27.90
2017,06,25,15,07,27.90
2017,06,25,15,08,27.90
2017,06,25,15,09,27.90
2017,06,25,15,10,27.90
2017,06,25,15,11,27.90
2017,06,25,15,12,27.80
2017,06,25,15,13,27.80
2017,06,25,15,14,27.80
2017,06,25,15,15,27.70
2017,06,25,15,16,27.70
2017,06,25,15,17,27.70
2017,06,25,15,18,27.60
2017,06,25,15,19,27.60
2017,06,25,15,20,27.60
2017,06,25,15,21,27.60
2017,06,25,15,22,27.60
2017,06,25,15,23,27.60
2017,06,25,15,24,27.60
2017,06,25,15,25,27.50
2017,06,25,15,26,27.50
2017,06,25,15,27,27.50
2017,06,25,15,28,27.50
2017,06,25,15,29,27.60
2017,06,25,15,30,27.60
2017,06,25,15,31,27.60
2017,06,25,15,32,27.60
2017,06,25,15,33,27.70
2017,06,25,15,34,27.80
2017,06,25,15,35,27.80
2017,06,25,15,36,27.80
2017,06,25,15,37,27.90
2017,06,25,15,38,28.00
2017,06,25,15,39,28.10
2017,06,25,15,40,28.10
2017,06,25,15,41,28.20
2017,06,25,15,42,28.30
2017,06,25,15,43,28.40
2017,06,25,15,44,28.40
2017,06,25,15,45,28.50
2017,06,25,15,46,28.60
2017,06,25,15,47,28.70
2017,06,25,15,48,28.70
2017,06,25,15,49,28.80
2017,06,25,15,50,28.80
2017,06,25,15,51,28.90
2017,06,25,15,52,28.90
2017,06,25,15,53,29.00
2017,06,25,15,54,29.10
2017,06,25,15,55,29.10
2017,06,25,15,56,29.10
2017,06,25,15,57,29.10
2017,06,25,15,58,29.10
2017,06,25,15,59,29.10
2017,06,25,16,00,29.00
2017,06,25,16,01,29.00
2017,06,25,16,02,28.90
2017,06,25,16,03,28.90
2017,06,25,16,04,28.90
2017,06,25,16,05,28.90
2017,06,25,16,06,28.90
2017,06,25,16,07,28.90
2017,06,25,16,08,28.90
2017,06,25,16,09,29.00
2017,06,25,16,10,29.00
2017,06,25,16,11,29.10
2017,06,25,16,12,29.10
2017,06,25,16,13,29.10
2017,06,25,16,14,29.10
2017,06,25,16,15,29.10
2017,06,25,16,16,29.10
2017,06,25,16,17,29.10
2017,06,25,16,18,29.10
2017,06,25,16,19,29.10
2017,06,25,16,20,29.10
2017,06,25,16,21,29.10
2017,06,25,16,22,29.10
2017,06,25,16,23,29.10
2017,06,25,16,24,29.20
2017,06,25,16,25,29.20
2017,06,25,16,26,29.20
2017,06,25,16,27,29.20
2017,06,25,16,28,29.30
2017,06,25,16,29,29.20
2017,06,25,16,30,29.20
2017,06,25,16,31,29.20
2017,06,25,16,32,29.10
2017,06,25,16,33,29.20
2017,06,25,16,34,29.20
2017,06,25,16,35,29.20
2017,06,25,16,36,29.30
2017,06,25,16,37,29.30
2017,06,25,16,38,29.30
2017,06,25,16,39,29.30
2017,06,25,16,40,29.30
2017,06,25,16,41,29.30
2017,06,25,16,42,29.30
2017,06,25,16,43,29.20
2017,06,25,16,44,29.20
2017,06,25,16,45,29.10
2017,06,25,16,46,29.10
2017,06,25,16,47,29.00
2017,06,25,16,48,29.00
2017,06,25,16,49,28.90
2017,06,25,16,50,28.90
2017,06,25,16,51,28.90
2017,06,25,16,52,28.90
2017,06,25,16,53,29.00
2017,06,25,16,54,29.00
2017,06,25,16,55,29.10
2017,06,25,16,56,29.10
2017,06,25,16,57,29.10
2017,06,25,16,58,29.00
2017,06,25,16,59,29.00
2017,06,25,17,00,28.90
2017,06,25,17,01,28.80
2017,06,25,17,02,28.80
2017,06,25,17,03,28.80
2017,06,25,17,04,28.90
2017,06,25,17,05,28.90
2017,06,25,17,06,29.00
2017,06,25,17,07,29.00
2017,06,25,17,08,29.10
2017,06,25,17,09,29.10
2017,06,25,17,10,29.20
2017,06,25,17,11,29.30
2017,06,25,17,12,29.30
2017,06,25,17,13,29.40
2017,06,25,17,14,29.40
2017,06,25,17,15,29.40
2017,06,25,17,16,29.40
2017,06,25,17,17,29.40
2017,06,25,17,18,29.40
2017,06,25,17,19,29.40